Tracking 29892 objects as of 21-Nov-2024
HD Live streaming from Space Station
objects crossing your sky now

USA 403

Track USA 403 now!
10-day predictions


NORAD ID: 61024
Int'l Code: 2024-160D
Perigee: 522.8 km
Apogee: 525.6 km
Inclination: 70.0 °
Period: 95.0 minutes
Semi major axis: 6895 km
RCS: Unknown
Launch date: September 6, 2024
Source: United States (US)
Launch site: AIR FORCE WESTERN TEST RANGE (AFWTR)
Your satellite tracking list
Your tracking list is empty




NASA's NSSDC Master Catalog

Two Line Element Set (TLE):
1 61024U 24160D   24265.72210390 0.00000000  00000-0  00000-0 0    02
2 61024  70.0000 165.0932 0002000 195.4374 164.5626 15.16284952    06
Source of the keplerian elements: McCants